Theta_e
333 328 330 327 323 321 315 313 302 305 304 299 302 303 301 310 310 307 307 310 307 312 318 321 319 317 314 318 320 326 333 329 328 319 318 340 347 348 351 350 352 354 352 351 354 355 355 356 355 356 356 356 356 356 355 355 355 354 354 354 355 355 354 354 352 352 352 352 352 352 351 351 350 350 350 350 350 350 351 350 350 349 350 350 350 349 348 348 348 348 348 348 346 346 346 346 345
324 329 328 322 318 318 310 313 303 303 301 298 300 304 305 308 307 306 306 309 314 321 323 321 322 322 324 326 326 325 331 336 335 336 342 345 350 348 350 352 352 352 352 352 350 352 354 356 355 355 355 356 355 355 354 355 354 354 354 355 355 354 353 353 352 351 352 352 352 351 351 351 350 349 349 349 351 352 352 352 349 349 349 349 348 347 348 348 348 347 348 347 346 346 346 345 346
326 324 317 317 317 316 316 311 299 300 299 296 299 303 308 305 305 307 308 315 319 323 321 324 325 322 323 323 318 324 325 339 339 341 340 347 341 345 349 352 352 354 353 350 350 351 353 355 355 355 355 355 354 354 354 354 354 354 355 355 355 354 353 352 352 352 352 352 351 351 351 350 350 350 350 351 352 351 352 351 349 348 347 347 347 347 347 348 347 347 347 346 347 346 345 345 344
333 322 315 313 310 316 309 307 302 300 298 300 300 305 306 306 306 309 314 321 320 318 322 320 320 330 328 319 325 334 333 334 341 339 339 342 344 348 349 351 355 353 354 351 351 351 354 356 355 354 355 354 354 354 355 355 355 356 355 354 354 353 353 352 352 352 352 351 351 351 350 350 350 350 351 352 351 351 351 351 351 348 347 347 347 347 347 347 347 346 346 347 347 347 346 344 344
323 319 319 312 311 306 305 304 301 301 297 301 300 306 307 307 307 308 311 318 322 320 320 322 323 329 335 331 328 325 329 338 340 345 342 346 349 350 349 352 352 352 351 352 352 352 354 355 354 354 354 354 354 355 355 355 355 355 355 354 353 353 353 352 352 352 352 352 351 351 350 350 350 350 351 351 351 351 351 350 349 350 348 348 348 347 347 347 347 346 347 347 347 347 345 344 344
320 316 318 318 309 316 307 301 300 299 302 305 303 305 307 308 307 308 309 312 321 322 323 322 320 322 326 334 337 335 341 330 338 343 345 344 349 350 350 352 352 352 352 352 352 353 354 354 354 353 353 354 354 354 355 355 355 354 354 353 353 353 352 351 351 351 351 352 351 351 350 350 350 350 350 350 351 351 350 350 349 348 348 348 348 348 347 347 347 347 348 348 347 346 345 344 344
315 313 311 313 313 313 301 300 301 301 303 307 305 305 307 307 308 308 308 309 313 318 324 321 325 327 326 332 335 341 347 347 341 342 347 348 350 351 353 352 352 352 352 353 353 353 354 353 353 353 353 354 354 354 354 354 354 354 353 353 352 352 351 351 351 351 351 351 351 351 350 350 350 349 349 350 351 350 350 349 348 348 348 348 348 348 347 347 347 348 348 347 346 346 345 345 345
318 310 308 303 302 304 299 300 301 304 304 307 308 307 307 307 308 307 307 307 309 310 320 323 324 320 325 333 330 341 346 346 345 349 349 349 351 353 354 353 352 352 352 354 355 354 354 352 353 353 354 353 353 353 354 354 353 353 353 352 352 351 351 351 351 352 352 351 351 351 350 349 349 348 349 348 350 348 348 348 348 347 347 348 348 348 347 347 348 348 348 347 346 345 345 346 345
315 311 313 304 300 303 299 299 301 306 305 306 307 308 312 308 308 308 307 309 311 315 319 320 322 317 322 332 333 339 343 346 348 349 349 351 353 354 353 354 352 351 352 353 355 354 353 352 352 352 353 353 353 353 353 353 352 352 352 352 352 352 351 351 351 352 352 351 351 350 349 349 348 348 347 348 349 348 349 348 348 348 347 348 347 347 347 348 348 347 347 346 345 345 345 345 345
312 312 306 303 303 299 299 300 300 303 305 307 306 307 308 308 308 308 308 308 309 314 318 322 322 317 326 330 331 338 342 348 348 348 351 352 354 355 355 355 353 352 353 355 353 351 352 353 351 352 352 352 352 352 352 352 352 352 351 352 351 352 352 353 352 352 351 350 350 348 348 348 346 346 347 348 349 349 348 349 348 348 347 346 346 347 347 347 347 346 345 345 345 345 345 345 344
306 310 312 302 299 298 299 299 301 304 305 307 306 308 309 310 309 309 309 308 312 311 316 321 318 320 328 329 335 345 348 347 347 346 351 352 353 353 355 355 353 355 354 354 353 351 353 353 353 352 352 352 352 352 352 352 352 351 351 351 352 352 353 352 352 351 350 350 348 348 348 346 346 346 346 348 348 349 348 348 348 347 347 346 346 345 346 346 345 345 344 344 343 343 344 343 342
305 304 305 299 298 298 300 300 302 304 305 306 305 309 312 311 312 309 309 307 309 310 314 321 317 327 328 329 332 342 346 347 347 349 351 353 351 353 354 353 353 354 355 353 352 351 350 351 353 353 352 351 352 352 352 352 352 351 350 351 351 352 352 352 351 351 350 348 347 348 348 347 347 346 346 347 347 349 349 348 348 347 347 347 346 346 345 345 344 343 343 342 341 342 342 342 343
305 307 302 300 300 301 302 301 302 303 303 304 305 308 311 310 309 309 310 310 310 309 313 320 327 327 325 326 337 342 341 346 347 350 351 349 351 352 353 353 352 354 354 353 350 349 350 348 350 351 352 352 351 351 352 352 351 350 350 351 351 352 352 351 351 350 349 348 348 348 347 347 347 347 347 347 347 348 347 347 347 347 347 346 346 345 345 343 343 343 342 341 341 341 342 342 341
307 309 305 299 303 301 301 301 303 301 301 305 308 309 311 311 314 315 315 311 309 309 318 323 330 331 328 331 333 336 340 345 346 349 348 349 351 352 350 351 353 351 352 349 347 349 349 349 350 350 351 350 352 352 351 350 350 350 350 351 351 349 350 350 349 349 348 349 349 347 347 347 347 347 348 347 347 347 347 346 346 346 347 346 345 344 343 341 341 341 341 341 341 341 341 341 341
307 310 306 303 301 301 303 300 301 301 301 306 308 308 309 315 316 316 314 309 310 319 325 329 330 326 323 325 327 335 340 344 346 347 348 348 349 351 350 350 350 351 346 347 347 345 348 349 351 352 351 352 351 353 352 351 346 344 346 347 347 347 348 349 349 349 348 348 349 348 347 345 344 346 347 347 347 347 347 346 345 346 346 345 344 342 341 341 341 341 342 342 342 341 340 340 339
311 309 306 302 299 300 302 301 303 301 302 307 308 310 308 317 319 316 315 317 323 330 328 323 333 323 327 325 332 338 342 345 346 348 347 346 349 349 348 347 349 349 348 347 347 348 349 347 348 351 348 349 351 351 351 350 344 342 343 344 345 347 348 348 349 349 348 348 347 344 342 342 344 346 346 348 347 346 347 346 345 345 345 344 342 342 342 342 343 342 342 341 341 340 339 339 338
312 310 302 301 298 300 302 302 303 299 305 307 309 309 307 314 320 322 326 325 323 325 325 328 327 334 328 334 336 342 344 346 346 346 346 344 346 346 345 345 346 346 347 349 350 345 344 348 349 348 351 350 348 345 351 345 345 342 343 344 345 346 348 349 348 348 348 347 344 340 341 345 347 347 347 348 347 349 346 346 345 345 345 344 343 342 342 342 342 342 341 342 341 339 340 339 340
310 303 301 299 301 301 304 303 304 307 305 306 307 308 307 311 317 322 323 320 321 324 328 332 337 337 342 343 344 343 344 344 345 343 342 342 343 343 343 342 342 341 343 343 346 347 344 341 346 348 347 347 349 349 345 347 343 346 346 347 349 348 347 348 349 349 346 346 340 341 343 346 347 344 345 347 344 348 347 346 345 345 345 343 343 342 343 342 342 342 342 341 341 340 339 338 338
306 303 302 298 303 304 307 307 307 306 306 307 308 308 308 312 318 321 318 316 319 319 324 328 331 336 339 341 341 341 342 343 344 343 341 341 340 341 341 341 341 342 341 341 343 344 346 344 345 347 346 345 342 345 345 347 345 343 344 346 345 345 345 347 347 345 345 342 340 340 346 347 346 348 345 343 343 344 347 345 344 345 344 344 343 343 342 342 342 342 342 342 341 341 343 340 339
307 304 299 301 306 307 307 307 306 308 308 307 307 308 308 313 315 321 317 320 318 316 318 325 328 331 334 336 339 340 341 343 344 342 341 341 341 341 340 340 340 342 339 339 338 341 345 345 348 348 348 346 344 345 345 343 344 344 344 345 343 345 345 345 344 341 342 341 343 342 345 345 346 349 344 344 345 347 346 345 344 344 344 344 344 344 343 343 342 342 342 341 340 340 338 336 336
307 303 301 303 306 305 307 307 307 307 308 307 307 307 307 311 311 317 316 316 317 320 322 319 322 331 334 336 338 340 340 340 342 343 343 341 342 342 341 342 341 341 341 342 341 342 344 344 345 344 342 343 344 347 345 344 345 344 345 345 345 346 345 343 341 340 343 340 340 340 342 345 345 347 343 343 344 343 343 344 344 342 342 342 344 342 343 343 343 341 341 340 338 338 336 338 339
307 303 305 306 308 304 307 307 307 307 308 307 307 305 307 311 311 311 313 311 313 316 320 322 325 334 335 336 337 339 339 339 340 341 342 341 341 340 341 341 344 344 343 341 341 342 340 345 346 350 342 343 345 344 345 347 344 344 348 347 346 344 341 342 342 343 343 341 341 345 344 343 345 347 345 343 340 345 344 344 344 344 344 341 342 342 341 341 340 339 339 337 338 339 339 341 336
302 305 306 307 308 305 308 307 307 307 307 306 305 308 309 308 309 310 313 312 314 320 322 327 327 333 337 339 338 338 338 339 340 340 340 340 340 340 340 340 342 341 341 340 341 342 343 347 348 345 340 343 343 347 347 349 346 347 349 344 341 340 341 338 340 341 341 341 344 343 341 342 341 342 344 343 340 343 345 345 346 346 344 345 343 343 340 340 339 339 339 339 340 339 337 337 335
305 302 307 306 307 306 308 307 307 307 306 306 308 309 306 307 304 310 310 316 318 320 321 324 328 331 336 336 337 338 338 339 341 342 341 341 341 340 341 339 340 343 340 337 336 338 342 342 345 349 341 342 341 346 345 345 347 344 343 343 342 343 341 336 341 339 342 344 343 344 343 346 343 345 345 344 341 342 339 340 341 341 341 342 343 344 340 340 340 339 340 337 339 338 335 337 335
304 303 306 306 307 307 308 307 307 307 306 308 308 306 306 307 307 308 309 314 318 318 317 321 328 329 333 337 336 338 339 340 340 341 343 341 341 341 342 341 341 339 336 336 336 334 338 340 342 341 340 340 343 344 339 343 343 343 343 343 343 343 344 342 346 346 347 347 346 343 345 347 344 343 343 342 342 337 337 337 341 342 341 343 339 340 340 343 341 341 341 340 339 338 336 337 335
306 305 306 306 306 307 307 307 307 307 307 307 305 305 307 308 309 306 310 313 317 317 315 320 325 329 334 336 337 337 338 339 340 340 340 340 341 340 340 339 338 336 335 336 336 336 338 338 339 341 346 342 339 343 343 341 341 342 341 339 341 345 346 346 347 345 344 346 344 343 342 344 343 342 341 343 342 340 340 339 342 341 342 341 339 339 339 344 340 341 342 342 336 335 335 337 336
308 306 305 305 306 306 307 305 306 307 306 307 304 304 306 309 306 302 310 315 317 315 316 323 324 324 330 335 336 338 338 338 339 340 340 340 339 339 339 339 337 336 337 337 336 337 337 335 340 342 347 345 344 343 344 344 343 340 340 340 341 344 346 347 346 344 345 345 345 343 344 344 346 344 342 342 346 344 343 340 339 339 343 340 342 340 340 343 342 339 338 339 336 335 332 339 333
305 306 305 305 306 307 306 306 306 307 305 307 306 304 307 308 306 304 309 315 315 314 317 322 323 323 322 333 335 337 337 338 339 339 338 337 336 337 339 337 337 337 337 337 336 337 337 338 340 343 344 346 346 343 344 343 341 340 342 342 343 343 347 346 343 342 342 343 343 343 345 344 343 344 343 342 341 342 341 340 339 336 340 345 341 341 340 338 338 336 336 335 335 334 335 336 336
306 305 300 303 304 303 305 304 305 306 304 307 307 304 303 304 303 307 311 315 314 315 318 320 324 325 329 331 334 335 336 337 338 338 339 338 340 340 340 339 338 339 339 338 336 338 338 340 338 344 343 345 345 342 342 341 343 342 343 343 342 345 347 346 342 341 341 342 343 342 342 342 342 343 344 343 340 343 342 340 335 335 337 340 341 339 336 337 340 339 337 337 334 335 335 335 334
305 304 302 301 301 300 304 306 306 304 305 307 306 295 299 303 305 308 315 316 313 313 316 318 323 327 330 332 333 335 337 337 338 338 339 340 340 340 342 340 340 340 337 337 339 339 343 344 338 341 344 343 342 342 343 344 343 343 345 344 344 344 345 344 343 342 342 341 342 342 343 343 344 344 341 341 343 341 341 340 337 338 340 341 338 340 336 338 338 340 338 335 335 334 334 331 332
299 302 303 298 297 297 304 304 305 302 306 306 306 296 299 303 306 308 314 314 313 312 315 318 322 325 328 331 332 333 336 337 338 339 342 342 342 342 343 341 341 341 338 339 338 341 342 343 338 339 344 343 343 343 343 343 344 343 343 345 346 347 344 344 344 344 344 343 343 342 343 345 343 341 341 344 340 339 337 337 337 336 337 337 339 338 338 340 338 337 337 336 336 336 335 335 332
301 297 295 298 296 299 304 306 305 301 305 307 304 297 299 303 306 308 313 313 313 312 314 317 322 324 329 330 331 331 334 337 338 341 342 340 341 341 341 341 341 342 340 340 341 342 343 344 339 339 339 341 341 340 339 345 344 344 344 344 345 346 342 342 342 344 343 342 343 340 342 342 341 341 340 340 340 340 339 338 336 338 338 338 339 340 340 339 339 337 338 337 335 335 336 336 334
300 297 297 296 297 298 302 304 306 305 304 305 303 297 300 301 307 309 313 312 312 311 314 319 320 324 329 330 331 331 332 335 338 340 340 340 341 340 340 343 341 341 341 341 339 340 340 341 339 338 337 335 337 336 342 341 345 344 345 344 344 344 342 342 342 344 343 342 342 341 342 341 340 340 341 340 339 339 337 338 338 338 338 338 337 337 338 339 338 336 335 337 337 335 335 332 333
296 298 296 299 297 297 298 303 305 305 304 301 303 300 301 306 309 310 312 311 311 310 313 319 320 324 328 330 330 330 330 333 335 338 339 339 339 341 343 340 342 339 342 338 340 340 340 336 337 338 337 335 331 332 337 343 344 344 345 343 345 344 344 342 343 344 343 342 342 341 342 341 341 340 340 341 340 338 338 337 338 337 335 336 337 338 339 339 338 334 334 337 337 335 335 335 333
296 296 296 296 299 300 299 299 302 304 304 302 302 301 301 305 308 311 311 311 311 310 312 319 319 324 327 329 329 330 330 332 335 338 340 340 339 340 341 341 338 338 339 336 336 338 337 334 336 338 336 335 336 340 341 344 344 344 345 342 342 341 340 339 339 341 339 339 342 342 342 342 341 341 340 341 342 338 338 337 336 337 335 336 336 332 336 336 336 337 336 335 334 335 335 335 335
298 299 298 297 297 298 298 303 305 304 302 300 301 300 300 303 305 309 312 311 310 311 314 320 320 322 326 327 328 329 330 331 336 339 339 338 340 340 340 341 340 336 336 334 335 338 339 333 334 336 336 335 340 342 343 342 339 341 336 336 335 334 335 335 339 336 337 335 336 336 336 338 342 341 341 339 342 341 340 339 337 337 336 338 338 335 336 335 331 333 335 333 331 333 335 334 336
302 301 300 298 298 300 302 303 305 306 303 301 301 302 303 303 304 308 311 312 310 311 314 320 320 320 321 325 327 329 330 330 335 337 336 337 339 340 340 339 340 333 330 332 331 335 336 333 333 332 336 338 339 340 341 337 336 333 331 331 331 333 333 335 335 335 335 334 334 333 335 334 336 338 340 341 339 338 339 340 337 336 336 336 336 335 334 334 335 336 334 335 333 331 331 335 337
300 300 299 298 299 298 301 302 305 306 304 301 303 302 302 304 306 307 312 312 310 311 314 320 319 320 320 323 326 327 329 331 334 336 337 337 338 335 334 337 335 330 330 331 331 332 331 329 326 329 332 335 338 337 333 332 335 331 331 330 331 333 331 331 332 333 333 333 334 334 335 335 336 336 336 336 336 335 335 335 336 336 337 335 335 335 334 335 338 338 337 334 336 332 329 334 335
301 299 299 298 298 301 303 303 304 305 303 301 303 301 302 304 306 309 313 313 312 312 314 320 317 318 319 323 325 328 329 329 330 336 336 331 328 330 336 336 334 330 328 330 329 327 328 328 328 328 331 333 332 332 330 329 334 335 334 332 331 330 333 335 331 331 332 331 335 335 335 334 333 333 333 333 333 333 333 332 332 332 332 332 331 332 334 336 336 336 337 334 332 333 332 333 335
299 298 297 296 300 298 296 302 303 305 303 301 302 301 302 305 307 312 315 313 313 314 314 319 319 320 320 322 325 327 327 329 330 334 328 326 326 324 329 332 333 331 329 327 328 327 328 327 327 328 331 332 332 330 330 331 334 336 337 336 336 335 333 333 333 332 329 330 331 333 334 334 332 331 329 327 330 332 333 332 332 331 332 333 331 330 330 328 332 334 334 334 334 330 329 330 336
300 300 298 298 298 299 299 300 303 306 305 306 304 302 300 303 304 309 313 315 314 314 314 318 320 321 324 325 327 329 328 329 330 328 321 321 321 326 329 328 329 327 327 328 329 327 328 330 330 330 331 332 331 331 330 331 335 335 336 337 336 333 332 329 328 326 329 328 329 331 332 333 331 330 330 329 329 331 332 331 331 331 331 332 331 329 329 329 328 329 331 332 331 330 327 332 335
297 300 301 300 302 301 300 303 302 300 299 303 301 294 294 302 304 306 311 312 314 317 315 315 318 321 323 323 326 329 330 330 327 322 321 321 322 325 326 326 328 328 325 329 332 332 332 332 332 332 334 332 332 331 333 334 336 334 333 330 326 327 326 327 325 322 322 326 326 331 332 331 331 330 329 329 328 329 330 330 331 329 330 331 331 330 329 329 329 329 330 330 329 332 329 331 329
296 297 302 302 302 302 302 301 301 296 293 300 303 293 290 301 301 304 307 308 308 316 316 316 319 319 322 322 324 326 327 324 320 320 320 321 321 322 324 325 329 327 327 329 334 335 334 334 336 337 336 334 332 331 332 335 335 334 332 330 329 327 326 328 328 329 327 326 329 330 330 332 330 330 330 329 329 329 329 330 330 329 329 329 329 330 329 329 328 330 331 332 330 333 332 326 328
295 303 302 301 302 301 301 302 300 298 301 305 302 299 294 294 299 304 307 307 306 310 314 315 317 321 320 321 323 323 325 319 321 321 324 324 323 323 323 325 331 331 330 335 336 336 335 335 337 335 333 332 331 331 333 337 334 333 333 331 330 329 329 327 329 328 329 329 327 328 329 329 329 328 329 327 327 326 327 326 327 329 327 326 325 326 326 328 329 330 331 331 331 331 331 328 330
299 304 304 301 301 302 301 300 299 300 300 297 299 301 294 295 300 305 308 304 304 307 310 310 313 316 319 321 322 322 323 319 321 322 324 326 326 326 327 327 334 334 334 334 330 327 329 330 331 331 330 334 333 333 335 337 336 335 333 331 329 331 330 328 327 327 327 328 328 327 328 328 329 329 327 325 324 324 325 326 326 326 326 325 324 323 326 328 329 330 329 329 329 329 329 329 330
303 305 305 304 302 302 302 299 298 298 295 291 298 299 292 292 300 302 307 304 304 306 310 314 314 314 315 318 322 322 318 321 325 326 326 327 329 331 330 330 333 333 335 331 326 326 326 327 330 332 329 333 335 334 338 337 336 335 331 331 330 327 327 325 326 325 326 328 327 327 326 325 325 326 326 325 324 325 326 326 325 325 325 323 324 326 326 326 326 326 326 327 328 328 328 328 328
307 304 302 301 301 301 302 301 300 297 290 293 299 300 296 290 298 299 300 301 307 308 311 314 314 318 319 320 321 322 318 319 325 327 328 328 331 332 330 329 332 333 334 330 327 326 327 327 330 330 332 336 338 336 333 336 335 334 332 332 329 328 327 326 324 325 325 326 325 325 325 324 325 324 324 325 324 323 325 325 324 323 325 326 325 324 324 323 325 326 326 324 325 326 325 326 327
304 302 299 299 297 299 298 298 299 289 287 295 299 300 300 288 295 301 305 308 310 309 308 310 313 314 313 314 318 316 317 320 328 327 326 328 330 330 330 329 331 332 329 328 329 331 328 329 330 330 331 335 331 326 324 331 335 333 333 332 330 329 328 325 325 325 324 325 325 324 324 323 323 323 324 322 323 324 324 322 323 323 324 324 324 326 326 325 325 324 324 325 326 327 328 326 327
302 301 299 294 290 291 287 292 286 288 287 296 300 300 296 294 301 302 305 308 309 311 310 310 311 311 312 313 315 321 322 324 325 326 327 327 329 329 328 329 330 329 328 330 331 331 331 332 332 331 331 334 328 324 325 329 334 332 331 331 331 330 328 327 326 325 326 325 324 322 322 321 321 321 321 321 323 325 324 323 322 320 321 324 325 323 324 324 323 323 324 324 324 323 322 324 322
299 298 297 292 287 285 283 287 289 290 294 300 299 302 295 298 301 307 306 309 312 313 313 313 312 311 311 312 318 322 325 326 325 325 326 326 328 329 329 328 329 330 330 330 332 332 332 331 333 333 333 334 332 328 326 329 334 333 332 331 331 330 328 327 326 326 326 325 324 322 322 321 321 322 321 322 323 324 323 323 323 323 321 322 322 323 324 324 323 320 323 323 323 323 324 324 323
298 301 299 296 294 289 282 287 284 286 290 296 300 296 291 293 298 309 311 312 313 314 315 315 314 313 315 317 318 324 326 324 324 324 325 326 327 329 329 329 329 330 331 332 332 333 333 333 332 334 334 334 334 333 330 335 334 332 331 331 331 331 328 326 325 326 327 325 324 323 323 323 322 322 322 324 324 324 324 324 323 323 322 322 322 322 322 323 322 319 320 322 320 321 321 320 319
301 301 302 297 293 299 290 291 291 290 289 292 295 292 297 298 307 310 313 313 313 313 314 314 311 317 315 316 317 320 321 322 322 323 325 327 328 329 328 329 328 329 329 331 331 332 333 333 333 334 333 332 333 333 332 334 333 333 331 331 331 331 329 328 326 326 327 326 325 324 324 325 323 323 323 324 324 325 323 323 324 324 322 322 322 322 322 322 322 320 319 321 320 318 320 320 319
300 300 296 298 303 300 293 292 298 291 289 288 296 296 298 303 305 308 310 311 312 314 315 316 316 316 317 317 318 319 320 320 323 324 325 326 327 327 327 327 327 328 328 328 329 332 332 331 332 331 332 331 331 330 330 330 328 329 330 331 331 332 331 329 327 328 328 328 326 325 325 324 326 324 324 325 325 325 325 324 324 324 325 323 322 322 322 322 322 321 320 319 319 320 319 318 320
301 294 299 304 305 303 297 288 290 288 285 286 294 290 294 295 290 304 306 308 309 310 313 314 316 316 315 317 318 320 320 321 324 325 326 326 326 327 328 326 327 327 327 328 329 331 332 332 332 331 331 330 329 329 328 330 329 329 329 331 332 332 331 330 330 330 329 327 325 326 327 325 324 324 325 325 326 325 325 324 324 325 326 326 324 323 321 321 322 320 321 320 320 322 320 320 320
301 299 306 296 291 289 296 291 284 284 283 285 291 294 294 296 295 300 304 304 307 311 312 313 313 313 313 314 317 318 319 320 321 322 322 323 323 324 326 326 326 327 327 327 328 329 330 331 330 330 330 330 330 329 328 329 329 329 329 330 331 331 330 329 327 327 327 327 326 326 326 325 325 324 324 325 325 324 324 324 325 325 326 325 325 325 325 323 322 321 321 322 323 321 320 319 320
304 304 301 304 299 296 291 291 293 292 286 285 286 293 289 296 300 302 302 307 309 309 309 310 311 312 313 313 314 315 316 317 317 319 321 322 323 324 325 326 325 326 327 327 327 328 328 328 326 325 326 328 329 329 330 329 330 329 329 330 331 330 330 330 327 325 323 323 323 323 324 325 324 324 324 324 323 323 324 324 324 324 325 325 325 325 325 325 325 325 323 321 322 322 320 320 320
297 297 296 299 300 302 298 299 294 291 287 287 286 286 292 300 306 302 304 307 307 307 307 310 312 313 314 315 315 315 315 316 317 318 319 320 322 324 325 326 324 326 328 328 327 327 328 328 328 325 322 325 327 330 329 329 329 328 331 330 330 329 330 330 329 326 325 324 322 322 323 325 324 323 324 324 323 324 324 324 325 324 325 325 325 325 326 326 325 325 324 323 323 322 320 319 319
300 298 296 297 296 294 289 287 297 295 291 287 287 285 296 303 308 307 309 310 308 310 309 310 309 313 316 316 316 316 316 317 317 319 320 320 321 322 323 323 323 324 325 325 325 325 325 326 326 327 326 327 329 328 328 327 327 327 327 329 329 329 331 331 331 328 324 323 323 322 324 326 323 323 324 323 323 324 324 325 324 324 325 325 326 326 327 327 325 325 325 325 324 322 323 321 322
Wind_Speed
9 9 7 8 7 7 7 7 8 8 8 12 11 11 10 11 8 1 6 5 8 5 1 1 6 4 7 6 7 11 14 10 7 6 4 4 2 9 11 15 17 17 16 15 15 14 15 15 14 14 14 15 16 16 17 18 18 18 18 17 16 16 16 16 16 15 15 14 14 14 14 14 12 11 11 11 11 10 9 12 11 11 11 11 11 11 10 10 9 10 10 10 10 10 10 10 9
9 8 6 6 8 7 8 8 8 7 10 11 12 11 12 5 2 11 11 1 7 6 2 3 4 2 3 4 4 5 13 12 11 10 7 6 6 10 14 18 16 16 15 14 15 14 14 15 14 14 15 15 16 17 18 18 18 18 18 17 16 16 16 16 16 15 15 15 14 14 14 13 13 12 11 11 10 8 7 8 10 11 10 10 10 10 9 9 9 9 10 10 10 10 10 10 10
7 6 7 7 7 9 6 8 10 10 10 11 10 13 5 4 8 7 1 2 3 1 2 3 1 5 6 3 7 5 7 11 13 11 8 9 12 10 11 17 17 17 15 14 14 13 12 14 14 14 15 15 16 17 18 18 18 18 17 17 16 16 16 16 15 15 14 14 14 14 14 13 12 11 10 9 10 10 8 8 8 8 8 9 9 9 9 8 9 9 10 10 10 10 10 10 10
10 7 8 7 7 7 7 7 11 11 10 9 8 15 10 6 3 7 2 2 2 3 4 7 7 4 6 8 8 9 8 9 10 11 8 7 7 10 12 18 16 14 14 13 14 13 12 15 14 14 15 16 16 17 16 17 16 16 16 17 17 17 16 15 15 15 14 14 14 14 14 13 13 11 10 10 9 8 8 7 7 8 9 8 9 9 10 8 7 8 9 10 10 11 11 10 10
8 7 9 8 8 7 8 8 10 10 12 7 7 6 2 8 6 5 5 4 3 6 8 4 2 1 6 7 1 2 7 11 10 8 7 7 10 11 14 17 15 15 14 15 15 14 14 18 14 14 15 15 16 15 16 16 16 17 17 18 18 17 17 16 16 14 14 14 13 13 13 13 13 12 12 11 9 10 12 10 7 7 8 8 8 8 9 8 7 7 8 9 10 11 10 10 9
9 7 8 8 8 7 7 9 10 12 12 9 10 4 4 6 6 2 4 4 5 6 5 6 5 10 6 9 5 4 6 3 6 7 8 10 13 13 15 14 13 13 14 15 15 14 16 18 15 14 14 15 15 15 16 16 17 17 18 18 18 17 17 16 16 15 15 14 13 13 13 13 13 13 12 12 12 12 11 10 8 7 8 9 9 9 9 9 8 8 8 9 10 11 11 9 9
7 8 7 7 9 7 9 10 11 11 12 14 9 3 2 6 3 4 4 7 6 9 5 6 1 7 6 6 11 9 8 6 6 8 8 13 14 13 14 13 13 14 15 12 13 14 19 18 15 14 13 14 15 15 15 15 16 17 18 18 18 18 17 17 15 14 14 13 13 13 13 13 13 13 13 13 13 13 12 11 9 8 8 7 9 9 9 9 9 8 8 10 11 11 10 8 7
7 9 7 9 7 7 10 11 12 9 7 12 5 3 2 3 1 5 5 5 10 10 12 8 8 8 8 4 6 7 9 9 11 13 14 12 14 13 12 13 13 14 13 12 12 14 19 17 15 14 14 14 15 15 15 15 18 16 17 18 17 17 17 15 14 13 13 14 13 12 12 12 12 13 14 14 15 14 13 12 11 10 9 9 8 8 9 8 9 9 10 11 10 10 8 6 5
8 11 4 9 10 7 9 11 11 13 3 4 4 4 7 8 7 6 5 8 6 8 12 10 8 10 9 11 6 7 8 9 12 13 14 13 12 13 10 12 13 13 13 12 13 15 16 16 16 15 14 15 15 15 15 15 14 15 17 17 16 15 14 15 15 13 13 12 12 12 12 12 11 10 11 14 15 14 14 13 11 11 10 10 9 8 9 10 10 10 9 10 9 8 7 6 4
8 8 8 8 8 11 10 10 11 10 14 3 1 4 2 1 7 8 8 7 9 5 6 10 9 9 13 11 9 5 7 9 12 13 12 13 13 11 11 12 12 13 13 12 14 15 14 17 16 15 15 16 16 16 15 15 14 14 15 14 14 14 13 13 12 13 13 13 12 13 12 12 12 9 9 11 14 14 14 13 12 11 10 10 10 10 9 10 10 9 8 8 8 8 7 6 5
8 9 8 9 10 11 11 9 10 10 7 3 5 3 3 3 7 8 8 10 8 9 9 6 10 6 11 11 5 5 9 10 11 12 12 12 12 12 10 12 12 13 13 14 14 14 14 15 17 14 14 14 14 14 15 15 14 14 14 13 13 13 13 12 13 14 14 13 13 14 14 13 11 9 9 10 14 14 13 13 12 12 11 11 10 10 10 10 9 9 8 6 6 5 5 5 5
9 9 8 10 11 10 9 10 10 9 6 6 8 5 2 7 4 7 9 12 8 10 7 7 6 7 11 9 6 7 9 10 10 10 10 12 11 13 10 10 12 13 14 14 15 14 15 14 13 14 13 13 13 14 14 14 14 14 14 14 13 12 13 13 13 13 14 14 16 16 15 14 13 11 10 10 11 13 13 12 12 12 12 12 11 10 10 10 9 9 9 6 4 4 5 5 5
11 8 9 9 9 10 10 10 5 3 1 7 8 7 1 8 9 9 8 11 11 11 8 10 4 8 5 6 7 7 10 12 11 10 11 10 11 11 12 11 12 13 13 14 14 15 15 14 12 12 13 13 12 12 13 14 13 14 14 13 12 12 13 13 13 13 12 16 16 14 13 12 12 11 12 11 12 11 12 12 11 11 11 11 11 11 11 10 8 8 7 6 4 3 5 6 4
10 9 8 10 10 12 11 6 9 8 8 6 3 3 3 5 4 5 7 10 8 11 6 7 6 20 9 7 8 7 9 12 12 12 10 12 11 11 13 11 13 13 12 12 13 13 13 12 11 12 13 12 12 11 11 12 11 11 11 11 11 11 12 12 11 13 13 14 14 14 13 12 10 11 11 10 10 10 10 11 11 11 11 11 11 10 10 9 9 8 7 7 6 4 5 6 4
11 7 8 9 10 10 9 10 7 7 8 8 8 5 4 7 3 9 11 12 9 3 9 5 8 11 8 9 8 10 10 12 13 11 10 11 12 12 13 12 12 12 12 11 10 15 13 10 9 11 9 9 11 8 9 9 10 9 9 9 11 10 10 12 12 11 12 13 13 14 13 11 11 10 11 11 10 9 10 10 10 11 11 11 11 11 10 10 9 8 8 7 6 5 4 4 4
9 8 7 9 11 11 7 10 9 5 3 5 9 2 8 5 5 9 8 9 9 6 6 6 2 4 10 10 10 15 15 14 12 11 11 12 12 12 12 12 11 9 9 10 13 9 7 12 10 9 11 10 7 7 8 9 11 8 9 9 11 12 11 10 10 10 11 12 13 13 12 9 9 10 13 11 12 10 10 9 11 11 11 11 11 11 10 9 9 8 7 6 5 5 3 1 2
8 7 9 9 12 10 6 8 7 9 7 2 3 3 10 6 2 6 2 5 8 10 8 8 3 8 6 4 13 20 16 13 12 13 12 11 10 10 10 9 9 9 6 7 8 11 8 7 11 10 10 11 7 9 7 11 10 10 8 11 10 11 11 10 10 9 9 9 10 11 9 7 8 8 9 8 12 9 8 10 11 11 11 11 11 10 10 9 8 8 7 5 5 5 5 5 4
7 9 9 11 10 11 5 5 6 5 4 5 4 3 6 7 5 4 7 9 9 9 8 10 12 11 12 16 18 19 16 14 14 14 12 11 10 10 10 10 11 10 9 7 7 10 11 5 6 9 8 9 8 7 8 7 9 9 10 10 10 8 8 9 7 7 7 7 11 9 5 5 6 7 7 9 7 8 9 9 10 11 11 11 10 10 10 10 9 8 7 6 5 6 6 6 7
9 9 10 11 9 9 5 4 3 5 2 5 5 2 4 6 5 4 6 10 10 14 10 11 11 12 14 15 16 17 16 15 15 13 13 13 11 12 10 10 10 11 9 8 6 4 7 9 9 9 12 13 13 8 9 7 9 7 6 8 8 9 7 9 6 4 4 4 7 7 6 5 5 5 7 7 7 7 9 9 10 11 11 11 11 10 10 10 10 9 7 7 6 8 6 6 5
11 10 11 12 11 5 1 4 3 4 6 1 4 5 7 7 8 8 7 1 10 11 11 9 9 11 14 15 16 16 15 14 14 14 14 13 11 11 10 11 10 10 12 10 7 4 6 8 11 11 10 11 8 9 9 9 8 8 8 8 7 7 9 6 5 4 5 4 4 3 4 4 3 4 9 9 10 7 8 7 9 11 11 11 12 9 10 9 10 9 8 7 7 7 7 5 6
9 12 12 11 12 13 6 4 5 2 3 3 3 1 6 7 2 10 11 11 2 6 13 12 12 13 15 15 16 14 15 14 14 15 14 13 11 9 9 9 9 9 10 10 10 7 6 6 7 11 13 9 10 7 10 8 9 6 7 8 8 8 7 6 4 3 3 6 9 7 6 4 4 4 6 8 5 6 7 6 7 7 7 8 11 7 7 7 8 7 7 7 7 6 5 7 4
8 14 15 16 4 6 3 2 3 1 2 5 3 8 5 7 7 7 7 10 11 13 11 13 14 13 15 17 15 14 15 15 15 15 14 12 12 11 9 9 7 8 10 8 9 10 6 5 8 7 11 6 8 9 8 8 10 8 7 7 7 6 6 7 5 4 4 5 9 7 6 7 3 3 5 5 5 1 3 4 6 4 5 6 8 4 5 5 7 6 7 7 5 7 6 1 4
12 13 14 14 11 6 4 5 4 4 7 10 7 6 4 8 5 4 5 8 5 8 8 14 8 11 12 14 15 15 15 15 14 14 13 12 12 11 9 8 8 8 7 8 6 5 9 8 9 10 10 7 8 7 8 7 8 7 6 7 7 6 4 4 4 6 8 12 5 6 5 7 5 5 4 6 4 5 3 1 2 2 3 4 4 4 5 6 5 7 8 6 6 6 4 5 3
14 11 10 15 11 10 4 4 4 6 7 5 8 5 7 5 10 7 8 8 6 4 8 6 12 12 9 13 14 15 15 15 13 12 12 13 12 11 11 10 8 7 8 9 9 9 8 11 12 8 12 9 6 8 8 9 6 8 7 7 6 5 6 4 11 12 10 10 11 7 5 4 6 4 3 6 8 4 3 3 3 4 3 3 4 4 4 6 8 4 3 6 6 5 5 4 5
14 15 13 7 10 11 11 8 8 7 8 7 6 8 10 7 8 4 8 6 5 7 5 10 13 8 10 12 13 13 13 14 14 13 12 10 11 11 10 8 10 9 9 10 10 10 10 10 11 12 15 14 7 6 9 5 4 3 4 3 2 8 8 12 5 7 6 6 6 6 4 2 4 3 2 3 5 7 8 5 4 4 2 4 5 5 9 4 6 3 2 3 6 4 4 4 3
14 14 14 8 9 9 10 10 11 9 6 8 9 12 10 10 3 8 10 8 6 3 6 9 14 12 11 11 12 12 13 14 13 13 12 10 12 13 11 10 9 10 11 11 10 9 10 12 12 10 8 11 10 6 4 9 8 5 3 2 5 6 7 4 6 4 4 3 7 7 3 1 3 3 1 1 0 3 4 3 2 1 3 4 6 4 6 6 4 4 3 1 6 6 3 4 3
8 16 16 14 9 10 10 12 12 10 11 10 11 12 12 10 5 9 13 9 7 6 7 11 9 7 8 11 12 12 12 13 14 11 10 10 12 11 11 11 11 11 12 11 9 10 11 12 12 10 9 10 11 10 8 8 7 5 8 8 5 4 2 5 4 4 5 5 5 6 3 4 3 3 2 1 1 1 1 3 1 2 1 2 4 4 7 7 4 6 9 9 7 9 6 2 4
3 9 12 16 12 11 10 12 11 10 12 10 10 13 15 12 9 12 13 12 9 9 8 11 13 12 11 12 12 12 11 12 11 12 13 13 10 10 11 11 11 11 11 11 10 10 11 12 14 9 8 8 7 9 8 8 9 8 9 10 6 5 5 4 3 5 6 5 5 3 4 4 3 2 2 2 2 2 3 2 3 1 1 2 2 5 6 7 5 1 1 2 2 1 12 5 4
12 6 11 11 13 13 14 13 12 11 9 12 12 13 16 11 13 18 4 10 11 10 10 10 11 13 12 11 11 11 11 12 12 11 13 11 11 10 12 12 11 10 9 11 10 10 11 9 14 6 8 7 7 8 7 6 6 7 6 5 6 5 4 3 3 5 7 6 3 2 4 4 3 2 3 4 5 3 2 3 4 2 2 2 3 3 4 4 3 3 1 2 1 3 2 7 6
10 10 9 12 13 15 17 15 14 14 11 12 12 12 13 14 15 18 12 10 10 11 11 10 9 9 10 11 10 10 11 12 12 11 11 10 10 11 12 11 11 10 9 9 10 11 8 6 10 4 7 8 6 7 8 8 6 7 5 4 6 5 4 3 3 4 6 7 4 1 3 2 3 3 4 4 0 1 2 3 3 1 2 3 1 1 0 2 4 1 2 1 2 2 3 1 4
12 11 10 11 11 12 16 15 16 16 11 10 11 11 11 16 19 19 14 14 11 12 12 11 10 9 10 10 10 10 11 11 12 10 11 11 11 11 11 12 11 10 8 10 11 12 9 8 10 5 5 4 4 5 5 7 5 5 4 4 4 4 4 3 3 4 3 6 5 2 2 4 3 4 3 1 2 2 2 4 3 2 1 1 0 1 2 2 4 3 0 2 1 2 2 3 3
11 10 13 12 12 9 16 18 18 15 12 13 12 11 11 13 18 22 18 15 14 13 12 12 11 9 10 9 9 11 11 10 10 10 12 13 11 9 12 13 11 10 10 10 10 11 9 7 11 9 5 4 3 6 2 3 4 3 4 4 4 4 3 3 3 3 4 5 4 7 6 4 2 3 3 4 2 2 2 4 3 2 3 2 1 1 2 3 3 2 2 1 2 3 2 2 2
11 13 11 12 12 14 11 16 13 16 12 15 16 10 11 17 16 21 16 15 15 14 12 12 11 12 11 10 9 9 11 12 11 11 11 12 11 11 12 12 11 11 11 9 8 11 9 8 9 10 9 7 8 5 4 5 3 4 5 4 4 4 3 3 3 3 3 5 4 5 4 3 4 3 2 4 3 1 2 2 5 4 3 1 4 4 3 2 2 1 1 2 2 2 2 2 2
10 12 12 11 15 14 11 15 15 16 17 13 17 14 14 3 11 9 11 12 14 14 13 12 11 10 10 9 10 11 11 11 12 12 13 12 10 12 10 11 10 10 8 12 7 9 9 9 6 7 7 9 4 1 4 3 3 4 4 4 4 4 3 3 3 3 4 4 4 5 6 5 3 3 2 3 2 2 2 1 3 5 3 2 2 3 2 2 1 2 2 2 1 3 3 2 3
10 11 12 13 13 13 15 11 14 16 16 12 14 16 17 8 11 10 12 12 12 13 12 12 12 11 10 10 10 12 11 11 12 12 14 13 12 12 10 10 10 4 5 12 5 5 7 9 6 9 8 7 4 6 4 2 4 4 3 3 5 4 3 4 4 4 4 4 4 5 5 5 4 5 4 3 1 3 2 2 3 2 4 5 3 3 3 3 4 1 1 2 3 2 4 4 3
13 12 11 13 10 11 13 10 11 13 14 15 14 12 15 17 10 12 11 10 11 13 12 11 11 12 11 10 10 10 11 12 11 12 13 12 11 11 8 8 9 8 5 9 5 4 8 11 5 6 7 7 6 6 4 4 4 4 4 4 4 4 5 4 4 5 4 5 6 6 5 4 4 4 4 5 4 3 3 3 4 3 5 2 2 2 2 2 3 3 2 1 3 4 5 5 5
10 9 12 13 12 10 13 10 11 11 11 13 15 13 12 14 15 12 11 11 12 14 13 12 12 11 12 12 11 11 11 12 11 12 13 13 12 9 6 8 7 10 7 7 5 5 7 8 8 6 5 6 6 6 4 1 2 4 4 5 5 5 5 5 5 5 5 5 6 6 5 5 4 4 4 4 4 3 3 4 4 2 4 2 2 1 1 6 7 5 5 3 4 6 4 4 3
8 6 6 9 11 11 13 13 12 6 8 8 11 13 15 12 15 12 11 11 13 14 13 13 12 13 11 12 12 11 11 9 12 11 11 10 8 9 7 6 6 11 8 9 6 8 9 7 8 5 2 1 5 4 5 3 7 3 5 5 5 5 6 5 5 5 5 5 6 5 5 5 5 5 4 5 4 3 4 3 2 2 1 3 4 6 6 3 3 3 3 4 4 6 5 3 1
11 9 7 9 9 11 13 6 7 7 9 10 11 14 12 15 18 10 11 11 10 13 13 13 15 14 12 12 11 11 11 12 13 11 8 9 6 6 2 4 6 11 9 11 11 11 12 12 11 13 9 7 5 5 6 0 8 5 4 5 5 5 5 5 6 6 6 6 5 6 6 5 5 5 4 3 3 4 3 3 3 2 2 2 2 1 2 2 2 3 3 3 3 5 4 4 3
9 10 10 9 7 12 7 7 9 9 7 9 13 11 11 11 5 9 10 11 10 12 14 14 13 12 12 12 11 11 12 12 12 9 9 11 6 4 3 2 2 11 10 10 10 11 8 9 12 9 9 5 3 2 4 2 10 3 5 5 5 5 7 7 7 6 6 6 6 6 6 4 4 4 3 4 5 6 4 3 3 3 3 2 2 1 1 1 1 2 2 2 4 1 4 2 3
11 12 12 10 11 12 9 5 11 9 10 11 10 8 10 8 9 8 8 7 10 12 13 13 12 12 11 9 9 10 12 11 10 8 17 9 5 2 3 4 3 7 7 10 10 10 7 10 10 11 9 9 7 3 4 4 7 6 6 6 7 8 6 6 6 6 5 6 6 6 5 5 5 5 5 5 6 4 4 4 3 3 3 3 2 2 2 2 2 1 2 3 3 3 4 3 2
10 14 14 12 11 8 9 3 8 7 10 12 12 9 11 12 14 12 11 10 11 10 12 14 12 11 10 10 10 10 9 9 9 17 14 7 4 4 6 7 5 12 8 6 6 10 11 9 11 10 9 8 6 3 3 9 7 7 8 8 8 7 7 6 6 6 6 5 7 6 6 5 6 4 4 4 5 5 3 3 3 3 3 3 3 3 3 3 4 4 5 4 4 3 4 3 2
10 11 15 16 14 11 7 9 10 10 8 10 14 13 4 9 13 14 13 14 15 11 12 12 11 10 8 10 9 9 9 11 17 15 14 14 13 12 10 8 7 14 11 10 9 7 9 9 10 9 9 7 6 4 8 9 8 7 8 8 8 7 7 6 6 5 6 6 6 6 6 6 6 5 6 5 5 5 4 4 2 2 2 3 3 3 4 4 4 5 4 4 5 4 4 3 1
10 4 16 14 12 6 8 9 10 8 2 4 11 11 9 8 11 15 16 14 16 15 11 10 9 8 10 9 9 5 6 17 9 10 14 14 12 11 10 12 10 15 15 13 10 9 7 6 8 10 5 4 7 7 14 10 8 9 9 8 8 8 7 8 7 6 6 6 7 7 6 5 6 6 5 5 5 5 4 3 3 3 3 3 2 4 4 5 5 5 5 6 5 6 6 5 5
4 3 9 14 14 10 10 11 10 7 5 9 9 13 10 4 5 14 15 14 15 15 13 13 11 11 7 7 8 12 12 10 12 10 12 11 12 11 8 10 10 15 13 11 10 11 9 4 5 8 9 7 10 15 13 11 9 9 8 8 8 8 9 8 7 7 6 6 7 6 6 6 6 6 6 6 6 5 5 5 5 5 4 4 4 5 5 6 6 5 6 6 6 6 6 7 6
6 8 8 10 12 12 11 10 11 6 8 8 8 12 9 8 10 10 10 13 14 13 13 14 10 13 12 10 9 6 12 9 11 13 12 11 10 8 8 10 10 13 14 15 14 13 13 9 6 11 14 12 11 13 10 10 9 8 7 8 9 10 8 8 8 8 7 6 7 7 6 6 6 5 6 6 6 6 5 5 5 5 5 6 6 6 5 5 5 5 6 6 6 6 5 6 6
6 8 9 8 9 8 8 9 8 7 9 10 10 12 12 7 10 10 12 12 10 9 10 10 12 10 6 5 7 12 9 8 7 10 10 10 9 8 12 14 12 10 10 10 8 9 9 9 9 7 8 6 6 3 4 7 7 6 7 8 10 10 10 9 9 8 7 7 7 6 6 6 6 6 5 5 6 6 6 6 5 6 5 5 5 6 6 6 5 5 5 7 7 7 5 5 5
8 8 10 9 10 9 9 9 9 6 7 11 11 10 11 10 7 8 10 8 7 8 8 11 11 11 13 12 8 14 13 9 8 10 11 11 11 11 11 13 12 13 13 10 11 8 10 8 8 9 6 6 7 9 4 9 5 6 7 8 9 9 9 8 9 9 9 8 7 7 6 6 6 6 5 5 5 6 5 6 6 6 6 5 5 5 4 4 5 5 5 5 5 6 6 6 7
9 9 10 10 6 5 8 7 8 8 6 7 10 11 8 11 7 5 5 10 9 1 7 9 9 8 5 5 8 12 11 13 11 10 10 10 10 10 11 12 13 15 12 12 12 10 8 10 11 11 9 7 11 8 7 12 6 6 7 8 9 8 8 9 9 9 8 7 7 7 7 7 7 6 6 6 5 5 5 5 5 5 5 5 5 5 5 4 5 5 6 6 6 7 6 7 6
12 11 10 9 7 7 7 9 5 8 10 2 6 5 9 4 5 13 5 2 8 6 7 8 4 4 4 4 8 5 8 11 10 10 9 9 8 9 11 12 11 12 14 13 13 12 10 10 12 12 13 12 11 9 10 11 7 5 7 7 7 7 8 8 8 8 8 7 7 7 7 7 7 7 7 6 5 6 6 6 6 6 6 6 6 5 5 5 4 6 5 6 6 6 6 6 6
12 12 10 8 7 6 7 8 8 8 6 9 10 5 6 11 6 5 13 12 10 11 9 8 9 8 7 9 13 12 12 10 10 9 9 10 11 11 10 11 10 11 14 14 12 11 11 10 11 14 13 13 13 12 10 9 7 5 6 5 6 6 7 7 7 7 7 7 7 7 7 7 7 7 7 6 6 7 6 6 6 6 6 6 5 5 5 5 5 6 6 5 5 5 6 5 6
10 11 10 11 7 7 9 2 5 4 3 4 7 4 4 2 7 5 7 8 11 12 14 15 12 16 14 16 15 13 12 10 9 10 11 12 10 10 10 8 9 7 9 8 10 9 9 10 11 12 14 13 11 11 9 7 7 5 1 5 5 6 6 7 7 7 6 6 7 7 7 7 7 8 8 7 7 6 7 7 6 6 6 6 5 5 5 5 5 5 5 5 5 4 5 6 5
7 10 12 9 7 9 6 4 4 5 3 5 2 8 5 11 9 6 7 8 7 8 9 8 9 11 13 11 12 11 11 9 10 11 12 12 9 8 8 10 9 9 7 7 8 7 8 10 10 11 12 12 11 9 8 6 7 5 2 2 3 4 5 6 7 8 7 6 6 6 6 7 8 8 8 8 7 7 6 6 6 6 6 6 6 5 5 5 5 5 5 6 6 6 6 6 5
4 9 9 6 3 8 4 4 5 6 8 6 7 6 9 9 6 11 11 7 7 6 8 9 8 9 9 9 11 11 12 12 12 13 13 11 8 7 7 9 11 9 10 10 9 7 7 7 8 9 10 11 10 8 7 7 7 6 4 3 4 4 5 6 7 8 8 7 7 6 5 7 7 7 8 8 8 8 6 7 6 6 6 5 5 5 6 5 5 5 5 5 5 5 5 5 5
12 7 5 9 6 9 6 3 6 4 7 5 7 7 9 7 4 11 13 11 10 10 10 9 8 9 11 12 12 12 14 13 12 12 12 11 9 8 7 9 10 9 9 10 10 9 7 3 2 4 4 7 9 8 7 6 8 6 6 6 6 5 5 6 7 7 8 8 8 7 7 6 7 7 8 8 8 8 7 6 6 7 6 6 6 6 4 5 5 5 4 4 3 4 5 5 5
15 10 9 8 8 6 5 5 6 6 6 6 6 9 6 3 3 11 11 13 12 11 9 9 9 9 9 9 11 12 13 12 11 11 11 10 9 8 7 8 10 10 11 9 9 7 9 7 8 7 4 4 6 9 8 6 6 6 7 7 7 7 7 7 8 8 7 8 8 9 9 7 7 6 7 8 8 8 8 7 7 6 7 6 6 6 5 5 4 4 4 4 3 3 4 4 4
12 12 10 8 8 3 6 4 9 7 5 5 5 7 4 5 6 4 9 13 11 11 10 8 8 10 9 11 11 10 11 11 11 11 11 10 10 9 8 9 9 10 9 8 8 9 8 7 10 14 12 11 9 9 9 6 4 4 7 9 8 8 9 8 9 9 8 8 8 8 8 7 7 7 7 8 9 9 9 8 7 7 7 7 6 6 5 4 4 3 4 4 3 2 3 4 4
12 11 12 12 9 10 7 8 5 9 7 6 4 5 6 5 5 6 13 13 10 13 13 13 14 9 11 10 11 11 12 10 10 10 10 10 11 10 9 8 9 10 10 9 9 8 8 8 9 10 11 11 11 10 10 9 9 8 12 11 11 10 10 8 9 9 8 9 9 8 8 7 8 8 8 8 9 8 8 8 8 8 7 7 7 7 6 5 5 5 4 2 3 2 2 4 1
Wind_Direction
234 222 228 234 235 240 222 203 232 198 233 242 252 225 247 208 253 194 223 103 254 165 186 192 223 203 267 347 348 49 33 43 10 304 63 138 92 124 135 123 129 128 133 134 129 134 136 133 134 134 135 133 134 134 135 134 131 130 130 129 120 118 118 121 126 131 138 139 134 132 128 128 130 128 123 123 124 127 133 133 132 130 129 123 124 122 124 125 124 119 117 112 110 108 103 96 97
219 212 226 229 228 224 208 215 249 209 210 244 238 253 238 188 147 236 244 335 347 81 249 238 167 254 334 258 334 152 60 57 65 79 94 121 168 117 118 130 132 130 131 132 137 138 137 137 132 134 135 133 134 135 137 135 135 133 133 130 122 120 122 127 132 140 142 139 137 133 129 129 130 129 129 129 130 125 114 116 134 135 133 127 129 130 124 123 126 123 118 114 112 105 103 105 100
211 215 200 215 228 236 276 197 236 241 217 222 237 230 214 159 228 196 67 272 70 119 203 129 110 202 191 244 173 313 99 72 78 85 97 136 133 126 136 124 128 132 133 132 138 141 138 139 137 137 136 136 136 137 136 135 134 132 131 127 123 124 128 132 138 143 144 141 138 133 130 131 131 131 128 122 116 114 113 116 122 124 126 132 130 131 134 129 129 132 122 118 117 108 103 104 104
283 218 211 191 203 213 237 211 239 244 236 233 240 220 204 221 207 89 120 34 167 218 204 166 192 44 293 198 76 93 70 69 76 109 129 143 117 135 133 123 130 131 134 141 140 141 140 138 139 139 139 138 138 135 130 130 127 127 126 126 128 133 136 140 142 145 144 143 138 133 132 134 134 132 122 113 107 107 112 120 126 128 125 131 133 138 136 129 129 131 130 122 119 109 108 110 106
244 211 249 216 257 201 234 229 229 236 250 243 243 71 129 203 84 108 112 222 142 237 209 127 130 133 34 46 310 120 92 92 86 79 104 111 128 138 135 133 135 141 142 144 145 140 138 139 141 141 141 140 138 133 129 126 128 127 128 131 134 137 140 142 145 146 146 142 137 137 137 137 137 133 123 110 100 101 100 90 86 114 131 128 129 120 126 133 133 130 129 128 121 114 111 109 108
234 221 208 249 231 345 269 235 225 233 248 266 272 74 96 60 90 173 137 196 192 217 259 172 183 172 144 49 47 91 3 121 106 109 123 128 134 136 137 142 137 139 141 147 147 147 143 138 142 142 141 139 140 137 133 130 131 133 134 135 140 142 146 148 150 150 147 142 141 140 140 141 137 132 125 121 116 110 110 110 112 119 136 132 132 131 134 137 134 132 132 129 122 116 111 109 112
199 210 194 222 257 252 247 237 236 232 231 253 269 101 165 100 255 179 196 206 189 234 182 209 201 122 144 129 84 61 55 12 136 132 134 131 134 139 145 139 138 135 137 147 148 140 139 136 138 138 141 141 142 141 136 129 132 134 138 141 144 149 151 151 151 150 148 145 145 145 144 142 136 131 129 125 117 114 118 120 123 131 130 125 129 135 138 137 134 134 133 125 120 115 113 116 112
229 223 165 219 219 204 225 247 250 234 219 206 236 52 61 8 359 216 217 242 173 226 176 204 191 193 119 137 81 71 64 48 86 112 126 134 140 143 144 142 140 134 137 143 138 133 133 133 136 140 142 145 143 140 137 136 138 141 143 147 150 150 152 152 151 151 147 145 143 144 140 132 132 133 128 128 123 123 124 123 125 129 133 129 123 133 132 124 127 130 125 119 121 124 119 119 125
224 244 201 231 239 207 234 235 244 242 170 199 248 253 41 270 271 313 265 226 44 240 169 197 189 221 103 75 82 94 89 90 97 112 125 135 145 145 144 142 139 138 135 142 127 131 140 134 137 142 146 146 145 142 141 140 138 142 148 151 151 151 153 154 155 148 141 144 146 143 133 122 117 117 120 133 129 127 126 123 123 121 123 119 111 119 122 124 123 126 129 127 129 134 130 135 131
218 222 192 234 242 231 227 229 239 230 246 149 337 82 350 280 240 232 248 216 230 185 201 199 176 220 135 120 125 106 104 109 119 123 134 142 143 144 138 134 137 134 132 130 133 139 138 141 141 144 148 150 149 147 146 144 145 149 151 152 155 155 156 154 145 140 140 143 145 144 131 125 132 126 120 135 132 130 129 124 121 121 120 123 125 124 120 127 127 128 127 128 130 135 139 134 122
217 204 265 237 232 247 229 230 223 235 230 172 223 208 241 243 254 242 228 248 211 217 183 203 181 168 128 110 91 123 109 128 126 127 142 146 144 131 141 134 128 128 129 135 139 139 139 148 142 143 146 148 147 146 144 148 151 152 153 156 159 156 152 146 144 146 146 148 139 143 135 137 137 138 141 139 139 133 131 127 124 124 123 122 122 126 128 133 137 131 131 125 131 133 127 116 103
227 210 204 238 237 238 227 247 222 226 171 97 241 146 128 255 255 246 223 232 220 229 194 156 194 161 119 127 136 134 146 132 130 138 142 146 136 134 125 128 131 127 134 139 141 144 145 145 147 144 141 142 144 145 148 150 152 154 154 156 158 155 148 146 147 144 146 136 146 146 141 141 145 150 149 149 147 135 131 129 125 121 124 127 127 127 130 130 112 113 114 119 128 119 107 94 85
244 226 218 239 244 233 255 250 285 318 282 182 210 106 234 246 235 231 243 229 214 221 178 196 133 163 113 112 117 141 147 133 135 150 154 144 141 135 130 129 131 132 137 144 140 144 145 149 146 151 145 140 140 146 150 150 151 156 157 154 155 150 145 143 144 137 135 141 149 140 139 141 146 148 149 153 148 136 136 131 128 126 128 132 131 129 128 130 129 123 117 122 113 101 90 84 79
232 242 237 238 247 266 255 247 241 228 220 235 137 83 237 268 228 269 260 240 212 226 155 140 92 86 108 125 142 159 148 145 141 153 151 145 140 141 131 133 136 137 145 146 140 139 143 144 149 147 145 148 150 151 148 148 145 146 151 149 144 145 141 134 131 132 142 145 145 142 139 138 142 141 143 142 139 135 126 128 132 136 135 133 132 133 126 132 135 123 118 110 103 79 67 73 63
238 243 269 263 254 244 236 262 235 215 256 133 121 221 237 203 270 228 231 224 211 84 99 123 130 151 160 190 172 162 155 153 148 149 151 144 139 133 133 135 137 144 141 125 145 148 143 139 138 148 137 153 154 156 153 141 133 145 147 141 138 128 126 131 131 135 143 142 144 139 136 125 135 148 142 136 129 124 134 134 134 140 137 134 133 132 130 126 123 121 112 100 91 80 65 65 72
248 261 258 256 246 248 213 228 252 310 136 172 114 188 239 118 238 229 205 279 98 110 164 141 289 202 170 204 162 156 151 148 152 150 148 151 137 135 133 134 135 133 126 143 156 106 106 143 153 156 162 167 167 142 139 130 142 146 142 134 138 131 126 120 126 133 140 142 142 122 120 141 156 151 147 140 139 135 147 146 137 138 137 134 134 133 130 127 122 118 114 112 107 113 116 110 102
231 256 252 237 249 238 227 211 208 229 101 218 126 157 264 145 155 291 353 229 162 151 195 140 149 51 112 113 141 134 146 149 149 153 155 147 146 141 141 142 143 138 135 128 140 143 138 128 160 165 160 149 159 152 136 150 136 149 143 140 126 126 112 119 127 133 135 134 119 102 154 167 158 150 144 141 137 146 132 130 143 138 134 137 138 138 137 135 130 133 139 145 155 157 177 182 192
221 225 235 237 242 236 226 236 200 351 51 84 158 127 262 183 180 148 218 193 182 157 131 82 86 100 100 99 111 133 136 145 152 156 156 154 155 152 157 157 157 150 150 157 164 153 139 149 183 165 155 162 138 137 152 144 142 158 160 139 136 125 121 129 137 148 150 140 126 148 193 178 169 159 140 142 132 136 136 141 142 138 136 138 142 147 144 146 153 153 157 168 189 205 206 205 182
223 224 232 241 226 249 282 216 314 151 203 97 77 204 273 64 180 171 205 184 166 172 149 131 109 116 123 125 127 133 146 149 154 156 160 161 163 163 161 159 159 154 149 152 121 99 129 159 187 196 174 169 151 177 144 129 141 157 148 128 136 145 140 151 152 146 118 125 153 180 198 182 174 153 144 121 152 151 138 145 139 139 139 143 148 149 157 160 162 163 168 188 207 230 226 232 210
222 240 226 233 252 264 88 351 359 295 24 137 218 113 264 114 216 137 189 115 191 179 150 141 136 136 131 133 138 142 148 149 155 158 165 170 172 166 159 161 162 163 147 137 133 149 173 166 174 167 146 117 143 153 146 154 161 161 154 152 149 158 163 160 161 155 151 161 154 244 210 176 143 130 103 110 138 149 136 137 142 143 146 151 155 163 162 171 169 175 185 203 213 215 218 234 221
198 234 239 235 224 251 197 219 246 253 268 334 253 54 238 171 324 184 165 150 229 298 144 172 164 156 137 141 143 150 146 153 161 168 166 173 175 172 166 157 166 159 146 136 124 138 181 193 185 168 142 160 173 151 145 153 141 143 165 158 163 161 164 162 174 177 174 153 192 187 188 149 158 136 149 162 160 141 149 156 161 170 169 167 174 177 179 173 192 190 189 207 215 217 215 213 260
230 226 238 253 301 303 321 184 172 259 248 278 273 226 231 82 213 230 175 174 177 201 180 161 150 148 142 141 151 150 149 160 169 172 175 172 171 170 168 150 155 150 149 146 139 148 162 214 189 156 126 149 138 157 154 146 149 163 160 161 157 154 167 174 163 173 167 186 224 180 164 141 113 160 144 123 74 135 165 167 177 167 196 183 187 193 201 191 203 208 203 199 215 219 218 212 209
239 228 237 249 268 281 211 202 128 225 220 216 227 232 7 238 217 253 230 209 159 170 152 101 136 131 139 140 149 154 162 166 172 174 171 167 169 168 166 156 147 151 144 134 137 148 156 167 152 145 128 139 153 148 147 147 144 154 157 158 160 172 176 163 180 148 193 199 201 175 170 147 142 188 172 117 140 185 168 203 193 194 214 216 191 210 216 229 232 213 214 206 197 214 195 197 198
232 246 215 233 243 236 280 238 165 215 244 243 245 1 243 215 241 176 230 109 148 108 131 134 123 120 151 151 155 162 169 169 170 180 167 167 167 164 160 161 166 149 147 149 161 178 170 167 155 154 124 148 187 166 151 152 140 153 161 158 180 161 156 197 198 170 196 185 181 130 103 152 156 154 144 160 162 149 139 219 228 202 225 257 253 219 241 225 233 229 217 205 206 204 210 201 197
223 238 250 243 225 227 244 244 238 224 224 237 252 244 231 224 253 138 209 133 165 157 139 141 127 143 181 155 159 163 171 172 175 178 171 174 165 161 161 167 166 170 158 178 178 182 177 171 163 134 145 163 158 167 145 112 107 145 138 165 189 187 176 210 157 148 165 141 102 93 130 143 118 127 146 196 155 138 163 215 207 202 138 276 292 231 230 192 240 228 241 258 240 207 209 194 183
225 240 240 227 234 236 231 233 238 229 231 222 226 235 235 234 272 254 226 145 150 147 179 143 138 171 159 165 157 162 172 177 173 172 175 168 160 169 168 173 173 178 183 187 181 178 177 174 148 132 154 140 159 162 131 124 137 143 135 181 224 194 210 120 156 146 96 94 99 90 58 37 92 75 152 82 92 119 171 145 229 72 121 221 240 268 260 217 214 201 217 232 330 269 205 183 188
212 224 239 243 226 228 220 235 225 220 231 216 228 222 226 215 203 220 229 130 160 184 176 139 137 163 180 165 162 164 171 173 171 172 170 166 164 174 175 179 187 184 186 186 183 175 176 169 136 149 140 144 142 153 135 130 136 150 164 188 226 187 131 153 159 134 90 78 74 78 183 87 91 126 176 232 80 31 36 111 180 149 194 268 312 324 322 355 17 14 347 4 342 337 272 158 201
273 269 235 233 236 235 239 224 235 222 217 222 225 230 230 200 204 242 204 153 183 189 173 159 167 164 193 178 159 162 174 175 177 177 174 173 175 182 179 186 185 185 185 182 177 174 163 168 128 157 131 125 128 132 137 148 159 177 197 161 188 124 171 155 149 112 91 66 83 156 109 92 89 137 193 123 199 165 206 150 77 55 322 302 340 351 348 342 21 28 79 162 218 289 320 334 304
250 242 254 236 232 239 230 230 219 223 228 206 213 237 227 192 222 227 152 162 178 191 186 187 174 167 179 158 161 166 177 178 178 180 181 181 183 189 185 191 188 184 186 181 174 161 155 162 125 125 131 125 142 138 144 147 178 162 167 156 117 164 151 168 141 93 109 132 102 73 74 107 132 157 222 204 187 217 145 83 68 96 330 336 15 359 17 304 333 14 353 338 97 295 328 321 298
240 232 244 242 226 229 221 221 224 211 221 208 193 224 220 211 215 228 160 197 193 190 200 196 178 168 167 166 159 168 176 179 180 187 182 181 193 187 189 189 191 187 182 172 166 160 148 112 106 145 153 145 148 153 154 156 161 148 174 132 145 144 155 135 110 109 112 92 110 128 112 138 193 163 225 199 9 302 68 109 139 154 161 196 158 124 24 276 273 292 31 32 350 330 325 94 321
228 229 231 245 239 226 203 211 205 219 196 194 191 234 226 211 204 216 165 188 188 200 200 194 181 178 161 166 166 172 177 186 185 184 184 185 192 188 186 187 183 185 180 168 162 155 146 139 119 169 144 139 133 126 142 137 150 148 147 125 133 124 132 137 122 102 114 126 131 108 145 139 199 160 177 19 147 199 208 89 88 174 125 78 165 68 219 242 251 259 78 324 325 274 281 302 333
225 227 220 223 243 240 212 191 199 204 177 188 203 238 247 242 195 202 167 185 189 203 201 195 186 175 160 165 175 178 176 187 188 185 185 189 188 193 190 183 181 183 174 167 156 149 135 135 126 134 141 143 106 85 241 122 141 143 124 126 129 135 135 139 134 128 134 126 148 158 159 139 146 187 165 156 171 173 208 118 110 128 137 135 261 191 235 241 246 257 248 279 285 276 264 304 285
210 229 223 218 217 242 212 163 189 201 194 185 211 230 225 247 242 168 158 190 198 208 196 200 188 173 169 173 179 185 172 186 187 184 181 188 186 192 187 180 179 180 175 133 158 147 149 116 116 132 137 170 124 192 150 141 170 134 123 130 136 141 132 130 123 122 130 137 157 122 113 116 142 127 186 142 157 199 147 186 146 145 118 164 166 207 242 240 255 235 277 287 295 288 310 7 329
210 207 237 229 217 219 235 163 198 195 220 191 200 233 243 338 89 139 171 199 198 214 201 200 194 175 173 178 179 191 182 181 192 187 181 186 183 185 182 177 167 183 167 152 140 145 146 125 131 113 104 102 116 233 238 136 146 133 134 134 135 126 112 97 104 126 125 128 128 123 132 132 144 137 152 138 125 177 162 185 144 126 143 207 212 229 167 254 230 141 234 243 277 309 296 332 305
208 201 217 230 230 215 230 177 176 212 198 216 191 219 242 183 183 164 198 198 203 213 203 203 193 178 182 189 184 191 188 187 188 191 185 185 184 176 173 163 180 154 173 103 155 161 121 116 122 111 128 132 145 142 179 164 142 147 119 132 128 125 141 124 129 127 111 106 92 107 122 135 143 148 145 111 198 152 122 112 48 163 126 225 108 319 14 319 280 218 320 309 303 266 268 264 234
221 206 213 229 214 204 236 204 165 195 182 216 216 212 215 237 202 173 182 201 201 218 207 194 196 191 183 195 186 189 192 192 192 193 184 186 183 173 162 157 161 164 69 110 166 121 117 113 126 126 121 143 148 135 165 173 160 140 134 140 149 149 120 116 114 103 101 98 107 103 109 116 140 141 145 144 142 111 130 142 144 155 192 163 129 142 184 237 272 264 255 196 245 267 254 242 255
330 261 212 219 225 216 217 231 145 188 214 205 223 225 230 219 231 181 191 196 211 218 205 186 197 197 196 193 191 189 192 195 191 194 185 186 167 153 138 141 164 109 134 101 156 116 87 100 127 101 131 153 151 151 141 133 184 135 143 157 139 124 114 118 103 98 88 71 78 96 106 98 96 104 112 114 117 132 140 155 133 208 113 188 134 153 211 226 225 213 223 162 214 231 246 259 239
270 271 249 224 223 230 188 208 133 183 241 210 219 232 224 233 237 195 179 192 207 213 205 187 205 202 200 196 191 195 191 198 196 193 193 168 149 116 165 160 151 130 123 127 83 77 80 81 94 58 12 146 152 114 60 18 268 161 177 151 135 137 133 129 108 91 88 96 87 82 73 91 107 103 85 79 78 83 91 92 89 84 63 126 169 161 198 202 206 218 238 225 206 210 200 243 350
247 262 233 243 213 245 182 166 131 173 203 241 222 221 232 226 235 171 181 198 210 214 212 195 205 204 200 192 191 195 191 200 199 192 175 110 79 143 101 152 162 128 131 116 103 101 133 146 156 156 172 175 174 126 120 180 266 188 177 131 141 132 113 109 107 106 109 103 95 90 83 77 67 78 89 96 99 85 66 68 84 95 73 84 111 125 152 186 217 231 218 228 231 234 162 180 197
240 231 248 226 222 221 177 193 197 202 213 225 222 224 231 228 186 167 190 204 211 213 210 202 207 204 199 194 191 196 200 201 203 185 96 67 74 39 219 106 239 105 117 133 144 157 146 160 166 144 128 141 137 142 119 184 258 152 110 138 120 111 107 92 101 102 101 114 105 91 95 103 111 107 112 101 69 56 47 50 64 57 57 61 52 71 110 139 264 288 253 271 288 349 23 286 214
228 243 239 241 228 214 237 175 209 190 211 248 274 235 228 187 194 186 189 204 211 202 205 203 203 211 193 183 195 205 208 204 192 122 76 83 120 142 102 132 151 128 121 161 158 152 170 165 141 137 153 158 155 172 122 213 222 141 132 116 101 107 122 129 131 124 115 106 111 111 105 114 98 79 60 69 77 60 43 43 35 67 66 49 40 68 68 54 20 339 27 334 319 347 213 167 170
216 227 247 247 236 228 215 135 189 199 215 204 228 232 222 182 202 200 187 193 207 196 201 204 200 204 185 187 194 201 214 213 74 81 100 118 151 157 182 176 166 120 164 184 171 162 156 146 147 154 156 139 140 164 176 211 176 159 147 142 142 144 136 146 125 123 138 134 103 113 118 108 102 114 88 65 70 80 72 64 42 46 57 53 48 31 48 47 44 12 19 4 353 10 342 273 150
234 201 224 245 273 245 205 189 209 222 232 180 207 240 211 183 199 200 184 190 206 194 204 202 196 201 197 200 197 201 200 94 101 119 147 167 180 182 186 156 155 129 157 181 196 160 139 141 149 148 134 129 132 115 234 206 178 165 162 154 149 144 133 112 105 103 101 106 114 99 96 96 99 80 78 82 57 61 42 43 27 66 94 117 82 52 44 28 25 37 20 20 20 7 13 320 25
236 202 189 231 244 246 231 237 214 243 254 311 210 228 238 185 201 191 180 196 199 195 182 203 200 201 204 194 207 202 168 104 122 177 160 170 180 199 170 157 160 143 158 164 158 139 130 109 131 109 92 142 146 161 218 196 183 169 166 152 143 136 121 117 119 108 106 109 111 117 110 104 97 101 97 95 102 78 68 74 61 25 15 31 80 70 48 44 26 32 33 32 25 25 23 18 358
239 246 213 211 225 222 226 231 239 242 247 218 209 220 230 221 202 184 175 196 198 193 186 199 194 210 209 218 210 202 102 134 147 153 153 170 182 189 149 158 155 140 141 131 79 66 65 93 135 149 164 180 169 194 198 191 181 172 161 152 143 119 123 127 127 127 118 115 122 118 104 93 82 85 87 80 72 83 87 68 55 48 22 29 67 85 62 58 51 40 37 38 33 30 27 16 15
192 237 220 221 214 223 223 232 236 216 236 245 220 203 231 195 206 164 177 211 200 192 178 180 190 200 192 201 228 84 102 201 167 155 158 176 180 155 125 145 150 142 133 121 137 146 156 168 164 160 171 186 191 191 189 190 172 173 154 147 131 131 134 132 130 126 126 128 114 113 121 119 116 105 87 72 77 75 72 81 74 62 55 52 59 67 82 71 52 50 43 38 30 47 37 34 31
49 227 211 215 220 223 223 247 240 229 228 235 231 212 221 223 154 199 205 207 205 183 165 164 172 201 170 196 244 80 106 242 167 151 147 159 159 128 144 149 143 141 127 121 129 147 146 147 145 151 166 184 161 63 285 192 181 171 144 140 135 136 136 133 131 134 133 133 130 132 124 121 116 110 107 97 89 86 74 65 71 78 69 48 52 63 56 63 69 57 53 51 50 39 49 52 52
195 220 223 194 206 216 217 216 228 227 239 238 222 216 198 246 171 223 185 167 149 189 181 159 183 161 184 191 194 127 164 209 163 151 148 142 149 153 142 152 150 126 111 132 161 159 151 154 152 151 161 134 111 128 270 262 207 163 139 140 139 138 141 141 140 137 139 138 138 129 120 121 121 120 115 107 100 95 91 88 81 72 64 64 63 47 61 78 67 64 50 51 52 49 41 45 42
224 223 225 219 199 228 214 208 213 223 235 227 229 199 201 225 99 62 56 89 76 120 148 168 179 170 146 139 144 138 157 176 160 158 146 148 149 154 158 153 141 123 133 153 170 171 160 156 156 148 158 139 144 152 162 248 207 166 147 145 140 146 146 142 140 139 142 144 146 135 138 132 133 133 122 117 116 110 97 86 81 79 76 62 56 74 69 65 74 67 68 65 52 52 52 42 49
214 223 216 215 213 201 234 219 217 226 219 159 229 200 240 157 88 132 120 62 121 129 132 158 142 129 158 146 94 126 153 166 158 146 141 142 143 148 150 146 153 150 150 162 174 168 167 170 161 157 158 155 153 163 157 218 178 166 147 144 144 152 147 144 142 142 147 148 145 145 145 141 136 128 128 124 120 111 98 91 88 87 85 85 82 71 57 42 65 88 74 61 62 56 45 51 52
215 228 229 227 232 216 225 236 223 224 235 173 198 200 234 223 163 140 140 151 138 136 130 135 150 155 157 132 156 167 155 149 140 142 146 151 152 152 149 149 154 167 163 166 172 174 160 172 170 159 156 164 167 157 182 177 137 160 155 151 154 161 150 148 143 145 149 148 148 155 145 143 136 136 129 120 113 112 119 109 102 97 93 92 87 86 80 67 57 70 75 67 68 59 57 61 57
209 225 227 231 217 205 252 52 329 357 264 186 194 221 202 251 120 143 138 138 147 143 148 148 168 140 149 149 153 153 148 150 155 154 151 149 155 164 163 150 146 152 157 161 168 164 169 170 172 167 156 159 156 144 147 122 109 95 105 162 161 164 156 147 141 146 143 146 149 150 145 144 143 134 130 132 129 124 120 125 118 105 99 99 92 85 84 81 71 78 78 73 70 73 67 59 66
169 219 225 226 227 241 242 182 183 132 267 256 188 213 173 133 151 173 170 151 121 117 111 114 117 122 132 128 127 129 124 135 131 128 130 138 162 155 150 161 153 134 142 162 179 177 166 162 165 161 152 151 150 151 151 128 103 103 73 189 174 171 153 139 135 136 134 131 135 144 153 148 139 141 136 139 137 136 136 126 118 113 106 97 96 98 99 97 92 84 83 79 77 66 70 64 58
141 243 237 246 306 303 272 270 157 221 234 228 213 206 219 195 194 170 173 176 127 125 105 85 99 94 79 95 105 105 105 110 118 125 129 136 157 161 139 152 158 147 144 146 151 170 169 166 164 157 147 151 152 151 149 149 129 145 167 200 184 175 145 132 137 142 140 145 149 152 142 144 152 147 149 143 145 144 140 135 133 131 126 122 115 103 98 99 98 84 79 80 81 87 79 74 67
253 234 198 246 184 217 223 257 245 229 222 244 211 204 245 229 190 172 173 177 161 128 108 120 96 97 111 105 103 110 107 108 112 121 127 136 147 156 150 147 150 141 129 124 130 136 142 144 122 79 118 144 154 145 159 159 155 160 175 193 185 177 166 149 151 150 152 158 157 149 152 156 153 157 154 150 146 149 149 148 146 143 138 138 130 128 128 115 105 105 102 94 75 74 71 74 65
241 267 262 218 260 251 233 211 251 235 237 219 235 214 227 274 211 163 208 155 128 134 145 121 124 114 111 116 113 116 113 113 115 119 125 133 139 139 139 136 146 140 132 123 118 127 138 148 134 132 126 141 174 159 158 156 154 167 185 184 188 185 177 167 159 161 164 164 161 155 154 166 161 163 163 157 153 152 157 155 155 151 151 147 147 146 140 133 130 125 126 98 100 106 105 92 82
203 218 239 222 222 243 257 230 240 235 244 235 231 226 165 59 0 215 87 107 127 128 132 129 118 128 124 113 118 117 114 113 115 117 119 128 132 140 143 144 145 140 122 121 122 126 131 145 144 143 162 175 174 163 153 152 152 202 216 189 182 195 185 172 168 167 167 163 164 160 162 165 164 174 171 169 159 160 161 163 158 160 159 154 153 149 143 147 127 123 96 115 132 131 128 107 111
219 217 223 233 218 211 218 229 234 253 237 242 225 220 73 64 333 113 126 129 151 151 167 155 148 143 116 115 112 109 97 102 114 119 127 131 127 128 126 134 139 135 128 119 123 127 136 142 140 139 153 167 162 162 155 161 158 206 207 193 181 196 184 173 170 167 168 164 168 171 169 175 174 174 179 177 167 162 166 171 164 169 161 161 161 152 154 153 135 131 132 139 140 146 57 89 189